Weather History for KTYR - March, 2013

Change the Weather History Date:

Thursday, March 28, 2013

  Actual Average Record
Temperature  
Mean Temperature 61 °F 59 °F  
Max Temperature 71 °F 70 °F 87 °F (1989)
Min Temperature 50 °F 49 °F 24 °F (1955)
Degree Days  
Heating Degree Days 4 7  
Month to date heating degree days 278 254  
Since 1 July heating degree days 1837 2146  
Cooling Degree Days 0 1  
Month to date cooling degree days 12 16  
Year to date cooling degree days 22 28  
Growing Degree Days 10 (Base 50)    
Moisture  
Dew Point 48 °F    
Average Humidity 65    
Maximum Humidity 77    
Minimum Humidity 53    
Precipitation  
Precipitation 0.00 in 0.11 in 1.83 in (1921)
Month to date precipitation 1.72 3.79  
Year to date precipitation 7.16 10.66  
Snow  
Snow 0.00 in - - ()
Month to date snowfall 0.0  
Since 1 July snowfall 1.0  
Snow Depth 0.00 in    
Sea Level Pressure  
Sea Level Pressure 30.21 in    
Wind  
Wind Speed 9 mph (SSE)    
Max Wind Speed 17 mph    
Max Gust Speed 21 mph    
Visibility 10 miles    
Events      
T = Trace of Precipitation, MM = Missing Value Source: NWS Daily Summary

Daily Weather History Graph

Daily Weather History Graph

Search for Another Location

Airport or City:

Trip Planner

Search our weather history database for the weather conditions in past years. The results will help you decide how hot, cold, wet, or windy it might be!

Date:

Astronomy

Mar. 28, 2013 Rise Set
Actual Time 7:14 AM CDT 7:38 PM CDT
Civil Twilight 6:50 AM CDT 8:03 PM CDT
Nautical Twilight 6:21 AM CDT 8:32 PM CDT
Astronomical Twilight 5:52 AM CDT 9:01 PM CDT
Moon 9:23 PM CDT (3/28) 7:49 AM CDT (3/28)
Length of Visible Light 13h 13m
Length of Day
12h 24m
Full, 98% of the Moon is Illuminated
Mar 28
Full
Apr 2
Last Quarter
Apr 10
New
Apr 18
First Quarter
Apr 25
Full

Hourly Weather History & Observations

Time (CDT) Temp. Dew Point Humidity Pressure Visibility Wind Dir Wind Speed Gust Speed Precip Events Conditions
12:53 AM 55.9 °F 39.9 °F 55% 30.21 in 10.0 mi South 13.8 mph - N/A   Clear
1:53 AM 53.1 °F 41.0 °F 64% 30.23 in 10.0 mi South 10.4 mph - N/A   Clear
2:53 AM 51.1 °F 42.1 °F 71% 30.23 in 10.0 mi South 6.9 mph - N/A   Partly Cloudy
3:53 AM 51.1 °F 42.1 °F 71% 30.22 in 10.0 mi South 9.2 mph - N/A   Partly Cloudy
4:53 AM 50.0 °F 43.0 °F 77% 30.22 in 10.0 mi SSE 6.9 mph - N/A   Scattered Clouds
5:53 AM 52.0 °F 43.0 °F 71% 30.22 in 10.0 mi SSE 8.1 mph - N/A   Overcast
6:20 AM 51.8 °F 42.8 °F 71% 30.23 in 10.0 mi SSE 10.4 mph - N/A   Overcast
6:42 AM 51.8 °F 44.6 °F 76% 30.24 in 10.0 mi SE 8.1 mph - N/A   Overcast
6:53 AM 52.0 °F 44.1 °F 74% 30.23 in 10.0 mi SE 10.4 mph - N/A   Overcast
7:53 AM 53.1 °F 44.1 °F 71% 30.26 in 10.0 mi SSE 9.2 mph - N/A   Overcast
8:53 AM 54.0 °F 45.0 °F 72% 30.27 in 10.0 mi SSE 9.2 mph - N/A   Overcast
9:53 AM 57.0 °F 46.9 °F 69% 30.28 in 10.0 mi SSE 10.4 mph - N/A   Overcast
10:53 AM 61.0 °F 48.9 °F 64% 30.28 in 10.0 mi South 9.2 mph - N/A   Overcast
11:53 AM 64.9 °F 51.1 °F 61% 30.27 in 10.0 mi South 11.5 mph - N/A   Overcast
12:53 PM 66.9 °F 52.0 °F 59% 30.25 in 10.0 mi South 11.5 mph - N/A   Overcast
1:53 PM 69.1 °F 52.0 °F 54% 30.22 in 10.0 mi South 8.1 mph - N/A   Overcast
2:53 PM 71.1 °F 53.1 °F 53% 30.19 in 10.0 mi SSW 10.4 mph - N/A   Overcast
3:53 PM 70.0 °F 53.1 °F 55% 30.17 in 10.0 mi South 10.4 mph - N/A   Overcast
4:53 PM 70.0 °F 53.1 °F 55% 30.16 in 10.0 mi SSE 10.4 mph - N/A   Overcast
5:53 PM 69.1 °F 53.1 °F 57% 30.16 in 10.0 mi SSE 11.5 mph - N/A   Overcast
6:53 PM 68.0 °F 52.0 °F 56% 30.15 in 10.0 mi SSE 12.7 mph - N/A   Overcast
7:53 PM 66.0 °F 53.1 °F 63% 30.16 in 10.0 mi SSE 8.1 mph - N/A   Overcast
8:53 PM 64.9 °F 53.1 °F 65% 30.16 in 10.0 mi SSE 6.9 mph - N/A   Mostly Cloudy
9:53 PM 63.0 °F 53.1 °F 70% 30.17 in 10.0 mi SE 8.1 mph - N/A   Clear
10:53 PM 63.0 °F 53.1 °F 70% 30.18 in 10.0 mi SSE 8.1 mph - N/A   Overcast
11:53 PM 63.0 °F 53.1 °F 70% 30.19 in 10.0 mi SSE 9.2 mph - N/A   Overcast